SCP
0 0 0 0 0 0 0 0 0 0 0 0 0 0 0 0 0 0 0 0 0 0 0 0 0 0 0 0 0 0 0 0 0 0 0 0 0 0 0 0 0 0 0 0
0 0 0 0 0 0 0 0 0 0 0 0 0 0 0 0 0 0 0 0 0 0 0 0 0 0 0 0 0 0 0 0 0 0 0 0 0 0 0 0 0 -0 -0 0
0 0 0 0 0 0 0 0 0 0 0 0 0 0 0 0 0 0 0 0 0 0 0 0 0 0 0 0 0 0 0 0 0 0 0 0 0 0 0 0 0 0 -0 0
0 0 0 0 0 0 0 0 0 0 0 0 0 0 0 0 0 0 0 0 0 0 0 0 0 0 0 0 0 0 0 0 0 0 0 0 0 0 0 0 0 0 -0 -0
0 0 0 0 0 0 0 0 0 0 0 0 0 0 0 0 0 0 0 0 0 0 0 0 0 0 0 0 0 0 0 0 0 0 0 0 0 0 0 0 0 0 0 -0
0 0 0 0 0 0 0 0 0 0 0 0 0 0 0 0 0 -0 -0 -0 -0 -0 0 0 0 0 0 0 0 0 0 0 0 0 0 0 0 0 0 0 0 0 0 -0
0 0 0 0 0 0 0 0 0 0 0 0 0 0 -0 -0 -0 0 -0 -0 -0 0 0 0 0 0 0 0 0 0 0 0 0 0 0 0 0 0 0 0 0 0 0 -0
0 0 0 0 0 0 0 0 0 0 0 -0 -0 -0 -0 0 -0 -0 -0 -0 0 0 0 0 0 0 0 0 0 0 0 0 0 0 0 0 0 0 0 0 0 0 0 -0
0 0 0 0 0 0 0 0 0 0 0 0 0 0 0 -0 -0 -0 -0 0 0 -0 -0 -0 0 0 0 0 0 0 0 0 0 0 0 0 0 0 0 0 0 0 0 -0
0 0 0 0 0 0 0 0 0 0 0 0 0 -0 -0 -0 -0 0 0 0 -0 -0 -0 -0 0 0 0 0 0 0 0 0 0 0 0 0 0 0 0 0 0 0 0 -0
0 0 0 0 0 0 0 0 0 0 0 0 -0 -0 -0 -0 0 0 -0 -0 -0 -0 -0 -0 -0 0 0 0 0 0 0 0 0 0 0 0 0 0 0 0 0 0 0 -0
0 0 0 0 0 0 0 0 0 0 0 0 -0 -0 0 0 -0 -0 -0 -0 -0 -0 -0 -0 -0 0 0 0 0 0 0 0 0 0 0 0 0 -0 -0 -0 0 0 0 0
0 0 0 0 0 0 0 0 0 0 -0 -0 0 0 -0 -0 -0 0 -0 0 0 0 -0 0 0 0 0 0 0 0 0 0 0 0 0 0 -0 0 0 0 0 -0 0 0
0 0 0 0 0 0 0 0 0 0 0 -0 0 -0 -0 -0 0 -0 0 0 0 0 0 0 0 0 0 0 0 0 0 0 0 0 0 0 0 -0 0 0 0 0 0 0
0 0 0 0 0 0 0 0 -0 -0 -0 0 -0 -0 0 0 0 0 0 0 0 -0 0 0 0 0 0 0 0 0 0 0 0 0 0 0 0 0 -0 0 0 0 0 0
0 0 0 0 0 0 -0 -0 -0 -0 -0 -0 0 0 -0 0 0 0 0 -0 -0 -0 0 0 0 0 0 0 0 0 0 0 0 0 0 0 0 0 0 0 0 0 0 0
0 0 0 0 0 -0 -0 -0 -0 -0 -0 0 0 -0 0 0 0 0 -0 -0 -0 -0 0 0 0 0 0 0 0 0 0 0 0 0 0 0 0 0 0 0 0 0 0 0
0 0 0 0 -0 -0 -0 -0 0 0 0 0 0 0 0 0 0 -0 -0 -0 -0 0 0 0 0 0 0 0 0 0 0 0 0 0 0 0 0 -0 0 0 0 0 0 0
0 0 0 0 0 -0 -0 0 0 0 0 0 0 0 0 0 -0 -0 -0 -0 -0 0 0 0 0 0 0 0 0 0 0 0 0 0 0 0 0 0 0 0 0 0 0 0
0 -0 -0 -0 -0 0 0 0 0 0 0 0 -0 0 0 0 -0 -0 0 0 0 0 0 0 0 0 0 0 0 0 0 0 0 0 0 0 0 0 0 0 0 0 0 0
-0 -0 -0 -0 0 0 -0 -0 -0 0 0 -0 0 -0 0 0 -0 -0 -0 0 -0 -0 0 0 0 0 0 0 0 0 0 0 0 0 0 0 0 0 0 0 0 0 0 0
-0 -0 0 0 0 -0 -0 -0 0 0 -0 -0 -0 0 0 -0 -0 -0 -0 0 0 -0 0 0 0 0 0 0 0 0 0 0 0 0 0 0 0 0 0 0 0 0 0 0
-0 -0 0 0 0 -0 -0 0 0 0 0 -0 0 -0 0 -0 -0 -0 -0 -0 0 0 0 0 0 0 0 0 0 0 0 0 0 0 0 0 0 0 0 0 0 0 0 0
-0 -0 -0 -0 -0 0 -0 0 0 0 -0 -0 0 0 0 0 -0 -0 -0 -0 -0 0 0 0 0 0 0 0 0 0 0 0 0 0 0 0 0 0 0 0 0 0 0 0
0 0 -0 -0 0 0 -0 -0 0 -0 -0 0 0 0 0 -0 -0 -0 -0 -0 -0 0 0 0 0 0 0 0 0 0 0 0 0 0 0 0 0 0 0 0 0 0 0 0
-0 -0 -0 -0 -0 -0 -0 -0 -0 0 -0 0 0 0 0 -0 -0 -0 -0 -0 0 -0 0 0 0 0 0 0 0 0 0 0 0 0 0 0 0 0 0 0 0 0 0 0
-0 0 0 -0 -0 -0 -0 -0 -0 -0 0 0 0 -0 -0 -0 -0 -0 -0 -0 -0 -0 -0 0 0 0 0 0 0 0 0 0 0 0 0 0 0 0 0 0 0 0 0 0
Wind_Speed_500mb
15 21 27 31 30 27 32 28 25 27 37 24 20 20 22 42 44 42 56 38 32 35 29 33 33 33 35 38 38 41 46 50 56 62 66 71 74 75 73 74 71 76 82 82
9 24 31 39 35 38 37 39 44 39 45 23 42 51 29 16 18 18 23 31 34 29 32 38 44 47 45 45 47 46 48 54 61 64 57 59 64 64 65 63 63 68 71 78
5 15 26 19 30 30 32 35 25 33 13 22 16 17 25 34 44 44 45 45 46 46 47 50 57 62 66 66 66 63 65 72 75 78 72 71 68 65 62 57 57 63 71 79
8 12 7 13 24 26 23 18 22 19 19 15 17 36 36 44 44 44 47 53 58 57 60 64 66 69 69 71 69 69 67 62 62 72 75 73 75 70 74 74 79 82 75 74
5 7 17 23 8 10 10 6 20 17 12 13 24 27 31 52 41 38 44 49 45 44 51 63 74 79 76 75 76 77 76 75 70 60 66 70 80 89 93 87 89 78 77 81
6 6 9 2 14 24 8 3 13 16 16 14 31 10 10 63 68 66 61 53 60 68 76 68 53 55 63 77 89 98 97 93 92 100 104 103 96 93 86 82 79 76 72 74
12 8 12 10 28 13 9 2 18 15 19 25 7 12 44 53 58 59 56 61 73 65 47 48 73 86 101 114 116 104 103 92 82 77 75 71 72 80 75 70 71 74 74 67
6 8 15 12 16 5 9 18 20 19 20 28 35 48 51 55 53 57 69 70 49 54 76 90 101 115 112 95 91 81 76 71 67 67 68 70 78 79 62 64 64 65 63 60
12 9 8 23 18 17 18 12 23 30 34 41 47 51 45 55 65 65 62 43 70 86 103 115 114 84 80 84 75 80 75 76 70 66 71 60 66 53 51 54 58 62 62 59
2 10 6 14 17 20 24 19 25 31 36 36 48 52 63 58 60 46 60 74 90 107 115 103 85 80 76 76 73 72 71 68 66 68 57 59 56 54 55 59 51 57 56 43
12 8 8 10 14 13 18 19 29 30 32 36 49 59 56 50 48 60 77 94 105 97 86 88 84 81 77 72 67 66 63 62 57 58 55 53 53 50 44 47 41 47 47 28
5 25 22 20 17 18 24 31 29 29 33 50 46 51 39 50 61 78 98 101 91 81 79 82 81 78 70 62 57 58 65 65 58 47 48 47 46 48 49 50 44 44 52 36
12 16 13 16 23 30 27 31 29 25 41 44 33 40 52 65 82 93 94 83 77 77 79 79 73 71 62 55 52 55 58 58 57 51 45 47 46 43 38 40 46 46 53 54
3 6 8 19 28 36 35 20 28 31 32 39 40 54 69 84 92 89 79 73 71 74 72 67 67 64 60 60 57 53 50 50 50 53 47 48 41 42 41 50 40 38 43 56
4 11 20 24 25 25 32 38 36 38 38 38 51 67 80 88 83 74 70 69 69 67 65 62 63 62 58 55 51 48 44 43 38 36 43 38 41 43 44 45 43 38 30 23
12 18 22 23 32 37 38 34 37 34 38 49 65 76 82 73 67 65 65 63 64 67 61 59 58 55 53 47 49 42 40 39 36 30 30 35 33 39 38 35 32 33 29 32
17 20 20 27 32 34 30 32 32 34 45 58 68 78 73 68 64 64 62 56 51 51 49 51 54 49 44 40 43 41 35 38 39 35 26 25 29 35 39 36 43 29 27 31
14 14 22 26 31 28 30 35 30 38 49 56 73 67 62 62 63 62 58 53 51 50 48 49 46 44 38 33 35 40 35 41 48 48 34 18 17 25 28 30 33 45 33 26
20 23 24 26 31 30 34 29 35 47 51 66 69 61 59 55 52 51 50 49 56 62 59 49 46 40 38 30 27 33 38 36 37 43 25 9 2 11 18 22 26 32 44 28
25 23 26 26 29 31 29 34 48 47 56 69 72 61 56 53 49 48 46 49 51 51 47 48 47 41 36 29 26 28 32 33 36 53 30 20 12 10 13 18 24 22 27 43
25 26 27 30 31 34 33 41 45 39 59 72 75 62 54 50 50 47 54 57 53 47 43 44 45 43 35 30 28 29 28 31 33 32 39 37 27 19 15 16 21 25 23 29
28 27 30 32 34 31 32 45 32 41 59 70 79 63 56 56 56 51 49 51 50 44 49 46 45 41 38 34 31 30 28 27 29 25 25 23 24 23 19 16 18 14 16 27
30 32 36 35 37 34 33 56 37 40 53 73 76 71 64 61 59 61 62 52 45 45 50 46 45 47 48 48 44 38 31 30 30 30 29 25 19 13 13 12 11 11 12 15
33 32 31 43 35 52 38 50 50 43 41 71 71 76 66 67 64 55 51 50 44 50 55 52 55 58 59 57 54 53 49 42 37 32 30 27 21 18 17 12 9 13 15 13
29 39 35 37 43 50 47 39 64 46 41 57 80 74 68 70 70 63 62 62 54 64 64 63 67 64 65 65 64 62 60 54 48 42 37 31 29 24 23 18 18 21 17 16
32 33 42 40 37 45 58 44 57 66 48 46 67 71 72 74 77 76 72 70 71 75 76 74 73 72 73 73 71 68 66 62 62 58 50 44 40 32 32 25 24 19 17 16
34 34 34 44 42 36 52 66 48 61 61 53 49 72 70 73 78 84 85 83 83 84 84 84 83 83 83 80 80 78 76 69 70 66 63 56 53 50 43 36 32 26 19 14
Wind_Direction_500mb
299 305 300 287 281 271 269 265 238 268 264 267 269 261 250 263 268 268 257 253 270 278 308 308 312 316 309 303 300 287 278 275 272 274 274 276 276 281 287 288 295 294 299 302
286 273 268 270 263 258 255 258 264 275 275 272 256 269 291 355 31 11 8 24 21 4 347 337 329 326 324 316 306 297 286 279 276 274 273 276 279 280 283 286 288 293 294 297
251 329 328 307 256 258 259 256 252 264 307 23 14 38 33 20 44 36 17 7 352 346 337 327 319 316 313 311 306 301 293 287 285 283 278 274 274 272 275 274 280 288 290 286
271 311 257 247 308 296 301 18 359 30 41 29 358 353 345 37 23 6 353 341 333 329 324 319 318 315 311 303 298 292 288 285 283 277 273 270 269 268 270 276 288 286 278 286
230 204 287 298 329 7 50 29 21 26 21 341 357 334 310 12 3 352 341 332 328 326 320 313 309 301 296 293 290 286 286 283 278 282 280 276 274 274 276 278 283 271 272 273
175 224 248 308 16 337 77 227 21 15 345 340 6 5 318 332 332 332 331 323 323 322 319 309 297 293 294 297 299 297 296 294 289 285 279 274 275 276 272 271 273 264 267 271
240 260 274 329 333 55 260 210 324 345 353 9 351 297 309 318 320 321 318 320 321 313 300 299 303 305 302 302 300 298 293 291 288 282 279 276 272 273 268 265 264 266 269 269
190 233 256 30 2 354 276 326 342 344 358 338 326 318 314 313 316 320 319 319 307 305 307 305 306 310 306 303 305 305 303 297 293 291 280 275 277 280 270 252 253 264 266 269
186 222 302 315 235 26 28 10 357 346 339 325 316 313 322 323 319 317 314 310 310 310 308 308 309 312 306 307 304 301 298 291 291 284 280 283 267 269 264 262 247 256 260 270
346 267 335 10 70 19 354 335 333 327 323 328 321 319 315 314 313 314 310 311 313 314 313 312 316 312 308 311 310 303 298 293 291 281 282 278 278 267 263 255 239 250 267 265
251 274 310 46 342 332 325 321 318 314 319 319 309 309 309 312 312 312 314 315 317 317 314 311 316 316 316 315 312 304 300 296 295 282 278 276 271 264 249 238 250 256 253 260
275 321 286 289 348 344 329 315 308 311 314 312 313 311 312 313 317 319 319 320 319 316 315 317 318 318 320 321 316 308 303 299 297 289 282 275 274 271 258 255 258 246 240 233
206 268 290 328 318 318 309 309 305 315 327 325 332 319 323 323 321 320 321 322 322 321 320 320 319 321 329 327 319 309 301 295 291 287 274 271 262 261 259 244 249 245 238 229
100 352 323 316 306 317 313 345 343 343 345 338 321 325 325 324 324 324 326 326 325 321 320 323 324 325 331 328 323 317 310 298 287 285 282 260 263 257 251 249 247 247 241 236
20 325 313 316 328 345 354 351 351 351 337 325 332 330 331 329 326 328 330 330 326 326 329 329 327 329 332 332 332 328 324 322 314 287 277 278 248 253 245 248 253 252 246 236
326 333 353 359 351 352 349 352 355 347 332 338 336 335 333 332 332 332 333 335 333 332 335 334 331 335 339 344 341 341 338 338 327 311 282 264 244 239 242 231 234 238 235 222
339 336 11 359 347 344 2 7 1 339 341 338 339 336 337 340 337 338 339 339 338 341 344 343 341 343 347 347 353 352 352 346 336 316 302 276 244 231 233 236 223 218 226 219
323 32 14 358 346 9 18 9 353 349 349 345 340 343 346 344 342 340 342 346 349 353 0 355 353 352 357 355 0 7 360 346 343 347 321 294 254 230 228 226 219 218 214 224
37 24 10 8 11 20 19 15 2 354 354 350 353 355 350 349 347 348 351 359 359 359 3 3 6 10 8 5 8 22 17 5 9 13 16 359 339 203 207 205 202 205 205 199
33 27 17 15 21 23 25 8 354 359 3 4 5 1 358 358 360 1 7 13 9 2 4 10 13 15 15 16 25 34 32 24 24 30 50 60 66 124 157 184 184 188 196 206
42 32 28 39 40 27 14 5 3 8 9 10 11 7 6 8 14 13 14 16 16 17 22 24 24 25 32 32 37 40 42 40 36 40 37 48 63 78 110 138 175 171 184 185
44 41 46 40 36 34 15 14 19 12 15 12 15 17 18 19 20 31 29 21 20 24 35 35 39 41 41 45 47 47 48 50 56 54 61 60 55 67 92 105 138 163 167 177
56 56 46 48 38 35 18 24 32 10 15 18 21 21 27 29 26 26 29 33 32 39 47 46 50 52 51 52 54 53 50 52 52 52 62 70 70 71 81 102 128 145 154 163
60 63 50 47 42 41 32 21 34 28 15 21 29 28 29 33 37 43 46 47 46 53 54 54 57 56 55 56 55 51 53 58 57 62 56 66 74 85 110 113 143 168 159 176
65 56 57 43 47 38 42 21 29 38 27 18 28 35 38 46 44 43 51 53 54 58 57 57 57 57 59 59 59 58 56 56 56 60 62 61 69 83 96 111 102 106 139 151
73 62 53 52 47 38 35 43 33 35 38 31 26 32 44 49 53 52 56 59 58 59 59 58 58 58 59 61 62 60 60 60 60 58 59 63 67 72 83 96 106 123 125 139
72 76 62 51 50 37 35 40 43 34 37 42 35 33 43 49 55 59 57 58 61 61 62 62 61 61 60 59 62 62 60 59 62 62 62 64 69 72 80 90 94 109 121 133
Wind_Speed_850mb
15 21 27 31 30 27 32 28 25 27 37 24 20 20 22 42 44 42 56 38 32 35 29 33 33 33 35 38 38 41 46 50 56 62 66 71 74 75 73 74 71 76 82 82
9 24 31 39 35 38 37 39 44 39 45 23 42 51 29 16 18 18 23 31 34 29 32 38 44 47 45 45 47 46 48 54 61 64 57 59 64 64 65 63 63 68 71 78
5 15 26 19 30 30 32 35 25 33 13 22 16 17 25 34 44 44 45 45 46 46 47 50 57 62 66 66 66 63 65 72 75 78 72 71 68 65 62 57 57 63 71 79
8 12 7 13 24 26 23 18 22 19 19 15 17 36 36 44 44 44 47 53 58 57 60 64 66 69 69 71 69 69 67 62 62 72 75 73 75 70 74 74 79 82 75 74
5 7 17 23 8 10 10 6 20 17 12 13 24 27 31 52 41 38 44 49 45 44 51 63 74 79 76 75 76 77 76 75 70 60 66 70 80 89 93 87 89 78 77 81
6 6 9 2 14 24 8 3 13 16 16 14 31 10 10 63 68 66 61 53 60 68 76 68 53 55 63 77 89 98 97 93 92 100 104 103 96 93 86 82 79 76 72 74
12 8 12 10 28 13 9 2 18 15 19 25 7 12 44 53 58 59 56 61 73 65 47 48 73 86 101 114 116 104 103 92 82 77 75 71 72 80 75 70 71 74 74 67
6 8 15 12 16 5 9 18 20 19 20 28 35 48 51 55 53 57 69 70 49 54 76 90 101 115 112 95 91 81 76 71 67 67 68 70 78 79 62 64 64 65 63 60
12 9 8 23 18 17 18 12 23 30 34 41 47 51 45 55 65 65 62 43 70 86 103 115 114 84 80 84 75 80 75 76 70 66 71 60 66 53 51 54 58 62 62 59
2 10 6 14 17 20 24 19 25 31 36 36 48 52 63 58 60 46 60 74 90 107 115 103 85 80 76 76 73 72 71 68 66 68 57 59 56 54 55 59 51 57 56 43
12 8 8 10 14 13 18 19 29 30 32 36 49 59 56 50 48 60 77 94 105 97 86 88 84 81 77 72 67 66 63 62 57 58 55 53 53 50 44 47 41 47 47 28
5 25 22 20 17 18 24 31 29 29 33 50 46 51 39 50 61 78 98 101 91 81 79 82 81 78 70 62 57 58 65 65 58 47 48 47 46 48 49 50 44 44 52 36
12 16 13 16 23 30 27 31 29 25 41 44 33 40 52 65 82 93 94 83 77 77 79 79 73 71 62 55 52 55 58 58 57 51 45 47 46 43 38 40 46 46 53 54
3 6 8 19 28 36 35 20 28 31 32 39 40 54 69 84 92 89 79 73 71 74 72 67 67 64 60 60 57 53 50 50 50 53 47 48 41 42 41 50 40 38 43 56
4 11 20 24 25 25 32 38 36 38 38 38 51 67 80 88 83 74 70 69 69 67 65 62 63 62 58 55 51 48 44 43 38 36 43 38 41 43 44 45 43 38 30 23
12 18 22 23 32 37 38 34 37 34 38 49 65 76 82 73 67 65 65 63 64 67 61 59 58 55 53 47 49 42 40 39 36 30 30 35 33 39 38 35 32 33 29 32
17 20 20 27 32 34 30 32 32 34 45 58 68 78 73 68 64 64 62 56 51 51 49 51 54 49 44 40 43 41 35 38 39 35 26 25 29 35 39 36 43 29 27 31
14 14 22 26 31 28 30 35 30 38 49 56 73 67 62 62 63 62 58 53 51 50 48 49 46 44 38 33 35 40 35 41 48 48 34 18 17 25 28 30 33 45 33 26
20 23 24 26 31 30 34 29 35 47 51 66 69 61 59 55 52 51 50 49 56 62 59 49 46 40 38 30 27 33 38 36 37 43 25 9 2 11 18 22 26 32 44 28
25 23 26 26 29 31 29 34 48 47 56 69 72 61 56 53 49 48 46 49 51 51 47 48 47 41 36 29 26 28 32 33 36 53 30 20 12 10 13 18 24 22 27 43
25 26 27 30 31 34 33 41 45 39 59 72 75 62 54 50 50 47 54 57 53 47 43 44 45 43 35 30 28 29 28 31 33 32 39 37 27 19 15 16 21 25 23 29
28 27 30 32 34 31 32 45 32 41 59 70 79 63 56 56 56 51 49 51 50 44 49 46 45 41 38 34 31 30 28 27 29 25 25 23 24 23 19 16 18 14 16 27
30 32 36 35 37 34 33 56 37 40 53 73 76 71 64 61 59 61 62 52 45 45 50 46 45 47 48 48 44 38 31 30 30 30 29 25 19 13 13 12 11 11 12 15
33 32 31 43 35 52 38 50 50 43 41 71 71 76 66 67 64 55 51 50 44 50 55 52 55 58 59 57 54 53 49 42 37 32 30 27 21 18 17 12 9 13 15 13
29 39 35 37 43 50 47 39 64 46 41 57 80 74 68 70 70 63 62 62 54 64 64 63 67 64 65 65 64 62 60 54 48 42 37 31 29 24 23 18 18 21 17 16
32 33 42 40 37 45 58 44 57 66 48 46 67 71 72 74 77 76 72 70 71 75 76 74 73 72 73 73 71 68 66 62 62 58 50 44 40 32 32 25 24 19 17 16
34 34 34 44 42 36 52 66 48 61 61 53 49 72 70 73 78 84 85 83 83 84 84 84 83 83 83 80 80 78 76 69 70 66 63 56 53 50 43 36 32 26 19 14
Wind_Direction_850mb
299 305 300 287 281 271 269 265 238 268 264 267 269 261 250 263 268 268 257 253 270 278 308 308 312 316 309 303 300 287 278 275 272 274 274 276 276 281 287 288 295 294 299 302
286 273 268 270 263 258 255 258 264 275 275 272 256 269 291 355 31 11 8 24 21 4 347 337 329 326 324 316 306 297 286 279 276 274 273 276 279 280 283 286 288 293 294 297
251 329 328 307 256 258 259 256 252 264 307 23 14 38 33 20 44 36 17 7 352 346 337 327 319 316 313 311 306 301 293 287 285 283 278 274 274 272 275 274 280 288 290 286
271 311 257 247 308 296 301 18 359 30 41 29 358 353 345 37 23 6 353 341 333 329 324 319 318 315 311 303 298 292 288 285 283 277 273 270 269 268 270 276 288 286 278 286
230 204 287 298 329 7 50 29 21 26 21 341 357 334 310 12 3 352 341 332 328 326 320 313 309 301 296 293 290 286 286 283 278 282 280 276 274 274 276 278 283 271 272 273
175 224 248 308 16 337 77 227 21 15 345 340 6 5 318 332 332 332 331 323 323 322 319 309 297 293 294 297 299 297 296 294 289 285 279 274 275 276 272 271 273 264 267 271
240 260 274 329 333 55 260 210 324 345 353 9 351 297 309 318 320 321 318 320 321 313 300 299 303 305 302 302 300 298 293 291 288 282 279 276 272 273 268 265 264 266 269 269
190 233 256 30 2 354 276 326 342 344 358 338 326 318 314 313 316 320 319 319 307 305 307 305 306 310 306 303 305 305 303 297 293 291 280 275 277 280 270 252 253 264 266 269
186 222 302 315 235 26 28 10 357 346 339 325 316 313 322 323 319 317 314 310 310 310 308 308 309 312 306 307 304 301 298 291 291 284 280 283 267 269 264 262 247 256 260 270
346 267 335 10 70 19 354 335 333 327 323 328 321 319 315 314 313 314 310 311 313 314 313 312 316 312 308 311 310 303 298 293 291 281 282 278 278 267 263 255 239 250 267 265
251 274 310 46 342 332 325 321 318 314 319 319 309 309 309 312 312 312 314 315 317 317 314 311 316 316 316 315 312 304 300 296 295 282 278 276 271 264 249 238 250 256 253 260
275 321 286 289 348 344 329 315 308 311 314 312 313 311 312 313 317 319 319 320 319 316 315 317 318 318 320 321 316 308 303 299 297 289 282 275 274 271 258 255 258 246 240 233
206 268 290 328 318 318 309 309 305 315 327 325 332 319 323 323 321 320 321 322 322 321 320 320 319 321 329 327 319 309 301 295 291 287 274 271 262 261 259 244 249 245 238 229
100 352 323 316 306 317 313 345 343 343 345 338 321 325 325 324 324 324 326 326 325 321 320 323 324 325 331 328 323 317 310 298 287 285 282 260 263 257 251 249 247 247 241 236
20 325 313 316 328 345 354 351 351 351 337 325 332 330 331 329 326 328 330 330 326 326 329 329 327 329 332 332 332 328 324 322 314 287 277 278 248 253 245 248 253 252 246 236
326 333 353 359 351 352 349 352 355 347 332 338 336 335 333 332 332 332 333 335 333 332 335 334 331 335 339 344 341 341 338 338 327 311 282 264 244 239 242 231 234 238 235 222
339 336 11 359 347 344 2 7 1 339 341 338 339 336 337 340 337 338 339 339 338 341 344 343 341 343 347 347 353 352 352 346 336 316 302 276 244 231 233 236 223 218 226 219
323 32 14 358 346 9 18 9 353 349 349 345 340 343 346 344 342 340 342 346 349 353 0 355 353 352 357 355 0 7 360 346 343 347 321 294 254 230 228 226 219 218 214 224
37 24 10 8 11 20 19 15 2 354 354 350 353 355 350 349 347 348 351 359 359 359 3 3 6 10 8 5 8 22 17 5 9 13 16 359 339 203 207 205 202 205 205 199
33 27 17 15 21 23 25 8 354 359 3 4 5 1 358 358 360 1 7 13 9 2 4 10 13 15 15 16 25 34 32 24 24 30 50 60 66 124 157 184 184 188 196 206
42 32 28 39 40 27 14 5 3 8 9 10 11 7 6 8 14 13 14 16 16 17 22 24 24 25 32 32 37 40 42 40 36 40 37 48 63 78 110 138 175 171 184 185
44 41 46 40 36 34 15 14 19 12 15 12 15 17 18 19 20 31 29 21 20 24 35 35 39 41 41 45 47 47 48 50 56 54 61 60 55 67 92 105 138 163 167 177
56 56 46 48 38 35 18 24 32 10 15 18 21 21 27 29 26 26 29 33 32 39 47 46 50 52 51 52 54 53 50 52 52 52 62 70 70 71 81 102 128 145 154 163
60 63 50 47 42 41 32 21 34 28 15 21 29 28 29 33 37 43 46 47 46 53 54 54 57 56 55 56 55 51 53 58 57 62 56 66 74 85 110 113 143 168 159 176
65 56 57 43 47 38 42 21 29 38 27 18 28 35 38 46 44 43 51 53 54 58 57 57 57 57 59 59 59 58 56 56 56 60 62 61 69 83 96 111 102 106 139 151
73 62 53 52 47 38 35 43 33 35 38 31 26 32 44 49 53 52 56 59 58 59 59 58 58 58 59 61 62 60 60 60 60 58 59 63 67 72 83 96 106 123 125 139
72 76 62 51 50 37 35 40 43 34 37 42 35 33 43 49 55 59 57 58 61 61 62 62 61 61 60 59 62 62 60 59 62 62 62 64 69 72 80 90 94 109 121 133